TimeCST,TemperatureF,Dew PointF,Humidity,Sea Level PressureIn,VisibilityMPH,Wind Direction,Wind SpeedMPH,Gust SpeedMPH,PrecipitationIn,Events,Conditions,WindDirDegrees,DateUTC
12:53 AM,17.1,10.0,74,30.25,10.0,South,6.9,-,N/A,,Clear,180,2012-11-13 06:53:00
1:53 AM,17.1,10.0,74,30.25,10.0,SSE,6.9,-,N/A,,Clear,160,2012-11-13 07:53:00
2:53 AM,15.1,9.0,77,30.25,10.0,South,8.1,-,N/A,,Clear,170,2012-11-13 08:53:00
3:53 AM,16.0,10.0,77,30.25,10.0,South,6.9,-,N/A,,Clear,180,2012-11-13 09:53:00
4:53 AM,16.0,10.0,77,30.25,10.0,South,9.2,-,N/A,,Clear,180,2012-11-13 10:53:00
5:53 AM,17.1,12.0,81,30.26,10.0,South,8.1,-,N/A,,Clear,180,2012-11-13 11:53:00
6:53 AM,18.0,12.9,81,30.26,10.0,South,6.9,-,N/A,,Clear,180,2012-11-13 12:53:00
7:53 AM,19.0,14.0,81,30.27,10.0,South,5.8,-,N/A,,Clear,180,2012-11-13 13:53:00
8:53 AM,21.0,15.1,78,30.28,10.0,South,6.9,-,N/A,,Clear,190,2012-11-13 14:53:00
9:53 AM,23.0,17.1,78,30.29,10.0,South,5.8,-,N/A,,Scattered Clouds,190,2012-11-13 15:53:00
10:53 AM,26.1,19.0,75,30.29,10.0,South,6.9,-,N/A,,Overcast,190,2012-11-13 16:53:00
11:53 AM,27.0,19.9,75,30.26,10.0,SSE,3.5,-,N/A,,Overcast,150,2012-11-13 17:53:00
12:53 PM,28.9,21.0,72,30.25,10.0,South,4.6,-,N/A,,Overcast,190,2012-11-13 18:53:00
1:53 PM,30.0,21.9,72,30.26,10.0,Calm,Calm,-,N/A,,Overcast,0,2012-11-13 19:53:00
2:53 PM,32.0,23.0,69,30.24,10.0,SSE,8.1,-,N/A,,Overcast,160,2012-11-13 20:53:00
3:53 PM,32.0,25.0,75,30.25,10.0,South,4.6,-,N/A,,Overcast,170,2012-11-13 21:53:00
4:53 PM,32.0,26.1,79,30.25,10.0,SSE,3.5,-,N/A,,Overcast,160,2012-11-13 22:53:00
5:53 PM,33.1,26.1,75,30.24,10.0,Calm,Calm,-,N/A,,Overcast,0,2012-11-13 23:53:00
6:53 PM,30.0,26.1,85,30.26,10.0,North,4.6,-,N/A,,Mostly Cloudy,350,2012-11-14 00:53:00
7:53 PM,30.9,26.1,82,30.26,10.0,Calm,Calm,-,N/A,,Overcast,0,2012-11-14 01:53:00
8:53 PM,30.0,25.0,82,30.26,10.0,East,3.5,-,N/A,,Overcast,80,2012-11-14 02:53:00
9:53 PM,28.9,25.0,85,30.26,10.0,Calm,Calm,-,N/A,,Mostly Cloudy,0,2012-11-14 03:53:00
10:53 PM,26.1,23.0,88,30.25,9.0,Calm,Calm,-,N/A,,Clear,0,2012-11-14 04:53:00
11:39 PM,24.8,21.2,86,30.21,1.8,Calm,Calm,-,N/A,,Clear,0,2012-11-14 05:39:00
11:46 PM,24.8,21.2,86,30.21,3.0,North,3.5,-,N/A,,Clear,350,2012-11-14 05:46:00
11:53 PM,24.1,21.0,88,30.25,4.0,North,3.5,-,N/A,,Clear,360,2012-11-14 05:53:00